Time,TemperatureF,DewpointF,PressureIn,WindDirection,WindDirectionDegrees,WindSpeedMPH,WindSpeedGustMPH,Humidity,HourlyPrecipIn,Conditions,Clouds,dailyrainin,SoftwareType,DateUTC
2013-04-27 00:02:00,44.9,7.3,30.13,NE,35,2.0,3.0,21,0.00,,,0.00,Wunderground PWS Mod,2013-04-27 06:02:00,
2013-04-27 00:07:00,43.9,7.4,30.13,NE,35,2.0,2.0,22,0.00,,,0.00,Wunderground PWS Mod,2013-04-27 06:07:00,
2013-04-27 00:12:00,43.2,7.8,30.13,NE,35,2.0,2.0,23,0.00,,,0.00,Wunderground PWS Mod,2013-04-27 06:12:00,
2013-04-27 00:17:00,42.2,7.0,30.12,NE,35,1.0,2.0,23,0.00,,,0.00,Wunderground PWS Mod,2013-04-27 06:17:00,
2013-04-27 00:23:00,42.1,6.9,30.12,NE,45,1.0,3.0,23,0.00,,,0.00,Wunderground PWS Mod,2013-04-27 06:23:00,
2013-04-27 00:28:00,42.8,6.5,30.12,NNE,32,1.0,3.0,22,0.00,,,0.00,Wunderground PWS Mod,2013-04-27 06:28:00,
2013-04-27 00:33:00,42.9,6.6,30.12,NNE,23,2.0,3.0,22,0.00,,,0.00,Wunderground PWS Mod,2013-04-27 06:33:00,
2013-04-27 00:38:00,43.8,7.4,30.11,NE,45,3.0,5.0,22,0.00,,,0.00,Wunderground PWS Mod,2013-04-27 06:38:00,
2013-04-27 00:44:00,45.2,6.4,30.11,NE,36,3.0,5.0,20,0.00,,,0.00,Wunderground PWS Mod,2013-04-27 06:44:00,
2013-04-27 00:50:00,45.2,6.4,30.10,NE,35,4.0,5.0,20,0.00,,,0.00,Wunderground PWS Mod,2013-04-27 06:50:00,
2013-04-27 00:55:00,45.1,7.4,30.10,NE,44,5.0,5.0,21,0.00,,,0.00,Wunderground PWS Mod,2013-04-27 06:55:00,
2013-04-27 01:01:00,44.9,7.3,30.10,NE,42,5.0,5.0,21,0.00,,,0.00,Wunderground PWS Mod,2013-04-27 07:01:00,
2013-04-27 01:06:00,44.8,7.2,30.10,ENE,58,5.0,5.0,21,0.00,,,0.00,Wunderground PWS Mod,2013-04-27 07:06:00,
2013-04-27 01:11:00,44.5,6.9,30.10,NE,52,4.0,5.0,21,0.00,,,0.00,Wunderground PWS Mod,2013-04-27 07:11:00,
2013-04-27 01:17:00,44.3,7.8,30.10,NNE,28,4.0,5.0,22,0.00,,,0.00,Wunderground PWS Mod,2013-04-27 07:17:00,
2013-04-27 01:22:00,44.3,7.8,30.10,NE,36,6.0,6.0,22,0.00,,,0.00,Wunderground PWS Mod,2013-04-27 07:22:00,
2013-04-27 01:27:00,44.3,7.8,30.10,NE,35,4.0,5.0,22,0.00,,,0.00,Wunderground PWS Mod,2013-04-27 07:27:00,
2013-04-27 01:33:00,44.2,7.7,30.10,NE,45,4.0,5.0,22,0.00,,,0.00,Wunderground PWS Mod,2013-04-27 07:33:00,
2013-04-27 01:38:00,43.8,7.4,30.10,NE,45,2.0,5.0,22,0.00,,,0.00,Wunderground PWS Mod,2013-04-27 07:38:00,
2013-04-27 01:43:00,43.6,7.2,30.10,NE,45,3.0,4.0,22,0.00,,,0.00,Wunderground PWS Mod,2013-04-27 07:43:00,
2013-04-27 01:49:00,43.6,7.2,30.10,NE,34,4.0,5.0,22,0.00,,,0.00,Wunderground PWS Mod,2013-04-27 07:49:00,
2013-04-27 01:55:00,43.9,7.4,30.10,NE,47,3.0,4.0,22,0.00,,,0.00,Wunderground PWS Mod,2013-04-27 07:55:00,
2013-04-27 02:00:00,44.2,7.7,30.10,NNE,21,4.0,4.0,22,0.00,,,0.00,Wunderground PWS Mod,2013-04-27 08:00:00,
2013-04-27 02:05:00,44.1,7.6,30.10,NE,44,3.0,3.0,22,0.00,,,0.00,Wunderground PWS Mod,2013-04-27 08:05:00,
2013-04-27 02:10:00,44.2,7.7,30.10,NE,39,1.0,3.0,22,0.00,,,0.00,Wunderground PWS Mod,2013-04-27 08:10:00,
2013-04-27 02:15:00,44.1,7.6,30.11,NE,39,0.0,2.0,22,0.00,,,0.00,Wunderground PWS Mod,2013-04-27 08:15:00,
2013-04-27 02:20:00,43.5,7.1,30.11,NE,39,0.0,1.0,22,0.00,,,0.00,Wunderground PWS Mod,2013-04-27 08:20:00,
2013-04-27 02:25:00,42.9,6.6,30.11,ENE,58,1.0,1.0,22,0.00,,,0.00,Wunderground PWS Mod,2013-04-27 08:25:00,
2013-04-27 02:30:00,43.1,7.7,30.11,NE,37,5.0,5.0,23,0.00,,,0.00,Wunderground PWS Mod,2013-04-27 08:30:00,
2013-04-27 02:35:00,44.2,7.7,30.11,NE,51,5.0,5.0,22,0.00,,,0.00,Wunderground PWS Mod,2013-04-27 08:35:00,
2013-04-27 02:40:00,44.8,8.2,30.11,NNE,16,3.0,4.0,22,0.00,,,0.00,Wunderground PWS Mod,2013-04-27 08:40:00,
2013-04-27 02:45:00,44.9,8.3,30.09,NE,47,3.0,3.0,22,0.00,,,0.00,Wunderground PWS Mod,2013-04-27 08:45:00,
2013-04-27 02:50:00,44.6,8.0,30.09,NNE,31,2.0,2.0,22,0.00,,,0.00,Wunderground PWS Mod,2013-04-27 08:50:00,
2013-04-27 02:55:00,43.1,7.7,30.09,NNE,31,1.0,1.0,23,0.00,,,0.00,Wunderground PWS Mod,2013-04-27 08:55:00,
2013-04-27 03:00:00,42.2,7.9,30.11,SE,125,0.0,1.0,24,0.00,,,0.00,Wunderground PWS Mod,2013-04-27 09:00:00,
2013-04-27 03:05:00,41.9,7.7,30.11,SE,125,0.0,1.0,24,0.00,,,0.00,Wunderground PWS Mod,2013-04-27 09:05:00,
2013-04-27 03:10:00,41.8,8.5,30.11,NE,47,2.0,2.0,25,0.00,,,0.00,Wunderground PWS Mod,2013-04-27 09:10:00,
2013-04-27 03:15:00,41.8,8.5,30.09,NNE,28,2.0,2.0,25,0.00,,,0.00,Wunderground PWS Mod,2013-04-27 09:15:00,
2013-04-27 03:20:00,42.2,8.8,30.09,NE,36,2.0,2.0,25,0.00,,,0.00,Wunderground PWS Mod,2013-04-27 09:20:00,
2013-04-27 03:25:00,42.3,8.9,30.09,NE,36,1.0,1.0,25,0.00,,,0.00,Wunderground PWS Mod,2013-04-27 09:25:00,
2013-04-27 03:30:00,42.5,8.2,30.08,NNE,31,3.0,3.0,24,0.00,,,0.00,Wunderground PWS Mod,2013-04-27 09:30:00,
2013-04-27 03:35:00,43.3,8.9,30.08,NE,37,3.0,5.0,24,0.00,,,0.00,Wunderground PWS Mod,2013-04-27 09:35:00,
2013-04-27 03:40:00,44.3,8.8,30.08,NE,39,4.0,4.0,23,0.00,,,0.00,Wunderground PWS Mod,2013-04-27 09:40:00,
2013-04-27 03:45:00,45.4,8.7,30.07,NE,42,2.0,2.0,22,0.00,,,0.00,Wunderground PWS Mod,2013-04-27 09:45:00,
2013-04-27 03:50:00,45.7,9.0,30.07,NNE,33,0.0,2.0,22,0.00,,,0.00,Wunderground PWS Mod,2013-04-27 09:50:00,
2013-04-27 03:55:00,44.9,8.3,30.07,NNE,27,3.0,3.0,22,0.00,,,0.00,Wunderground PWS Mod,2013-04-27 09:55:00,
2013-04-27 04:00:00,43.3,7.9,30.08,WSW,255,4.0,4.0,23,0.00,,,0.00,Wunderground PWS Mod,2013-04-27 10:00:00,
2013-04-27 04:05:00,41.2,8.0,30.08,North,349,1.0,2.0,25,0.00,,,0.00,Wunderground PWS Mod,2013-04-27 10:05:00,
2013-04-27 04:10:00,39.9,7.7,30.08,NNW,348,0.0,2.0,26,0.00,,,0.00,Wunderground PWS Mod,2013-04-27 10:10:00,
2013-04-27 04:15:00,39.1,7.9,30.12,NNW,348,0.0,1.0,27,0.00,,,0.00,Wunderground PWS Mod,2013-04-27 10:15:00,
2013-04-27 04:20:00,38.3,7.2,30.12,North,350,1.0,2.0,27,0.00,,,0.00,Wunderground PWS Mod,2013-04-27 10:20:00,
2013-04-27 04:25:00,37.8,7.6,30.12,North,7,2.0,2.0,28,0.00,,,0.00,Wunderground PWS Mod,2013-04-27 10:25:00,
2013-04-27 04:30:00,37.5,6.5,30.13,North,7,1.0,2.0,27,0.00,,,0.00,Wunderground PWS Mod,2013-04-27 10:30:00,
2013-04-27 04:35:00,37.2,7.0,30.13,NNE,15,2.0,3.0,28,0.00,,,0.00,Wunderground PWS Mod,2013-04-27 10:35:00,
2013-04-27 04:40:00,37.2,8.6,30.13,NNE,16,2.0,3.0,30,0.00,,,0.00,Wunderground PWS Mod,2013-04-27 10:40:00,
2013-04-27 04:45:00,37.5,8.1,30.13,NNE,24,3.0,3.0,29,0.00,,,0.00,Wunderground PWS Mod,2013-04-27 10:45:00,
2013-04-27 04:50:00,38.5,8.2,30.13,NNE,26,3.0,4.0,28,0.00,,,0.00,Wunderground PWS Mod,2013-04-27 10:50:00,
2013-04-27 04:55:00,39.2,8.8,30.13,NNE,30,3.0,3.0,28,0.00,,,0.00,Wunderground PWS Mod,2013-04-27 10:55:00,
2013-04-27 05:00:00,39.3,8.9,30.12,NE,37,3.0,4.0,28,0.00,,,0.00,Wunderground PWS Mod,2013-04-27 11:00:00,
2013-04-27 05:05:00,38.8,8.4,30.12,NE,34,3.0,4.0,28,0.00,,,0.00,Wunderground PWS Mod,2013-04-27 11:05:00,
2013-04-27 05:10:00,38.3,8.8,30.12,NNE,25,4.0,5.0,29,0.00,,,0.00,Wunderground PWS Mod,2013-04-27 11:10:00,
2013-04-27 05:15:00,38.0,8.5,30.15,NE,47,3.0,4.0,29,0.00,,,0.00,Wunderground PWS Mod,2013-04-27 11:15:00,
2013-04-27 05:20:00,38.2,8.7,30.15,NE,40,2.0,3.0,29,0.00,,,0.00,Wunderground PWS Mod,2013-04-27 11:20:00,
2013-04-27 05:25:00,38.6,8.2,30.15,NE,45,3.0,3.0,28,0.00,,,0.00,Wunderground PWS Mod,2013-04-27 11:25:00,
2013-04-27 05:30:00,39.1,7.9,30.15,NE,44,3.0,4.0,27,0.00,,,0.00,Wunderground PWS Mod,2013-04-27 11:30:00,
2013-04-27 05:35:00,39.2,8.8,30.15,NE,46,4.0,4.0,28,0.00,,,0.00,Wunderground PWS Mod,2013-04-27 11:35:00,
2013-04-27 05:40:00,39.2,8.8,30.15,NE,45,3.0,4.0,28,0.00,,,0.00,Wunderground PWS Mod,2013-04-27 11:40:00,
2013-04-27 05:45:00,39.2,8.8,30.15,NE,53,2.0,3.0,28,0.00,,,0.00,Wunderground PWS Mod,2013-04-27 11:45:00,
2013-04-27 05:50:00,39.2,8.8,30.15,NE,48,3.0,4.0,28,0.00,,,0.00,Wunderground PWS Mod,2013-04-27 11:50:00,
2013-04-27 05:55:00,38.8,8.4,30.15,NE,46,3.0,6.0,28,0.00,,,0.00,Wunderground PWS Mod,2013-04-27 11:55:00,
2013-04-27 06:00:00,38.0,8.5,30.15,NE,51,2.0,3.0,29,0.00,,,0.00,Wunderground PWS Mod,2013-04-27 12:00:00,
2013-04-27 06:05:00,37.5,8.8,30.15,NE,53,2.0,3.0,30,0.00,,,0.00,Wunderground PWS Mod,2013-04-27 12:05:00,
2013-04-27 06:10:00,37.2,8.6,30.15,ENE,60,2.0,3.0,30,0.00,,,0.00,Wunderground PWS Mod,2013-04-27 12:10:00,
2013-04-27 06:16:00,36.3,8.5,30.18,NE,49,3.0,3.0,31,0.00,,,0.00,Wunderground PWS Mod,2013-04-27 12:16:00,
2013-04-27 06:21:00,35.6,8.6,30.18,NE,44,3.0,3.0,32,0.00,,,0.00,Wunderground PWS Mod,2013-04-27 12:21:00,
2013-04-27 06:26:00,35.5,8.5,30.18,North,0,2.0,3.0,32,0.00,,,0.00,Wunderground PWS Mod,2013-04-27 12:26:00,
2013-04-27 06:31:00,36.2,8.4,30.20,NNE,30,2.0,3.0,31,0.00,,,0.00,Wunderground PWS Mod,2013-04-27 12:31:00,
2013-04-27 06:36:00,37.0,8.4,30.20,ENE,63,2.0,3.0,30,0.00,,,0.00,Wunderground PWS Mod,2013-04-27 12:36:00,
2013-04-27 06:41:00,36.8,8.9,30.20,ENE,58,2.0,3.0,31,0.00,,,0.00,Wunderground PWS Mod,2013-04-27 12:41:00,
2013-04-27 06:46:00,36.6,8.8,30.19,NE,46,2.0,3.0,31,0.00,,,0.00,Wunderground PWS Mod,2013-04-27 12:46:00,
2013-04-27 06:51:00,36.8,8.9,30.19,NE,44,2.0,4.0,31,0.00,,,0.00,Wunderground PWS Mod,2013-04-27 12:51:00,
2013-04-27 06:56:00,37.5,8.8,30.19,NE,39,3.0,3.0,30,0.00,,,0.00,Wunderground PWS Mod,2013-04-27 12:56:00,
2013-04-27 07:01:00,38.0,9.3,30.19,NE,45,3.0,3.0,30,0.00,,,0.00,Wunderground PWS Mod,2013-04-27 13:01:00,
2013-04-27 07:06:00,38.3,10.3,30.19,NE,53,2.0,3.0,31,0.00,,,0.00,Wunderground PWS Mod,2013-04-27 13:06:00,
2013-04-27 07:11:00,38.8,10.7,30.19,ENE,60,2.0,3.0,31,0.00,,,0.00,Wunderground PWS Mod,2013-04-27 13:11:00,
2013-04-27 07:16:00,39.5,11.3,30.22,ENE,62,3.0,3.0,31,0.00,,,0.00,Wunderground PWS Mod,2013-04-27 13:16:00,
2013-04-27 07:21:00,40.5,12.2,30.22,ENE,60,2.0,3.0,31,0.00,,,0.00,Wunderground PWS Mod,2013-04-27 13:21:00,
2013-04-27 07:26:00,41.2,12.1,30.22,NE,55,2.0,4.0,30,0.00,,,0.00,Wunderground PWS Mod,2013-04-27 13:26:00,
2013-04-27 07:31:00,41.8,13.3,30.19,NE,56,2.0,2.0,31,0.00,,,0.00,Wunderground PWS Mod,2013-04-27 13:31:00,
2013-04-27 07:36:00,42.3,13.8,30.19,NE,44,2.0,3.0,31,0.00,,,0.00,Wunderground PWS Mod,2013-04-27 13:36:00,
2013-04-27 07:41:00,43.5,14.8,30.19,NE,44,2.0,2.0,31,0.00,,,0.00,Wunderground PWS Mod,2013-04-27 13:41:00,
2013-04-27 07:48:00,44.9,15.3,30.18,NE,44,1.0,1.0,30,0.00,,,0.00,Wunderground PWS Mod,2013-04-27 13:48:00,
2013-04-27 07:53:00,46.0,13.8,30.18,NE,44,1.0,2.0,27,0.00,,,0.00,Wunderground PWS Mod,2013-04-27 13:53:00,
2013-04-27 07:58:00,46.8,13.7,30.18,NE,44,1.0,2.0,26,0.00,,,0.00,Wunderground PWS Mod,2013-04-27 13:58:00,
2013-04-27 08:03:00,47.6,14.3,30.16,NE,44,0.0,1.0,26,0.00,,,0.00,Wunderground PWS Mod,2013-04-27 14:03:00,
2013-04-27 08:08:00,48.3,15.0,30.16,NE,44,0.0,1.0,26,0.00,,,0.00,Wunderground PWS Mod,2013-04-27 14:08:00,
2013-04-27 08:13:00,49.2,14.8,30.16,South,186,2.0,3.0,25,0.00,,,0.00,Wunderground PWS Mod,2013-04-27 14:13:00,
2013-04-27 08:19:00,49.9,15.4,30.21,WSW,242,1.0,3.0,25,0.00,,,0.00,Wunderground PWS Mod,2013-04-27 14:19:00,
2013-04-27 08:24:00,50.4,13.9,30.21,WSW,245,2.0,3.0,23,0.00,,,0.00,Wunderground PWS Mod,2013-04-27 14:24:00,
2013-04-27 08:29:00,50.8,14.3,30.21,WNW,296,1.0,2.0,23,0.00,,,0.00,Wunderground PWS Mod,2013-04-27 14:29:00,
2013-04-27 08:34:00,51.1,14.5,30.20,WNW,295,0.0,2.0,23,0.00,,,0.00,Wunderground PWS Mod,2013-04-27 14:34:00,
2013-04-27 08:39:00,51.6,15.9,30.20,WNW,295,1.0,1.0,24,0.00,,,0.00,Wunderground PWS Mod,2013-04-27 14:39:00,
2013-04-27 08:44:00,52.5,13.6,30.20,NW,313,0.0,2.0,21,0.00,,,0.00,Wunderground PWS Mod,2013-04-27 14:44:00,
2013-04-27 08:49:00,53.3,14.3,30.18,NW,313,0.0,1.0,21,0.00,,,0.00,Wunderground PWS Mod,2013-04-27 14:49:00,
2013-04-27 08:54:00,54.5,15.3,30.18,SW,231,2.0,2.0,21,0.00,,,0.00,Wunderground PWS Mod,2013-04-27 14:54:00,
2013-04-27 08:59:00,55.1,14.7,30.18,SSW,209,2.0,4.0,20,0.00,,,0.00,Wunderground PWS Mod,2013-04-27 14:59:00,
2013-04-27 09:04:00,55.9,14.2,30.16,SSW,195,1.0,3.0,19,0.00,,,0.00,Wunderground PWS Mod,2013-04-27 15:04:00,
2013-04-27 09:09:00,56.6,14.8,30.16,WSW,238,2.0,4.0,19,0.00,,,0.00,Wunderground PWS Mod,2013-04-27 15:09:00,
2013-04-27 09:14:00,57.2,12.7,30.16,SE,131,0.0,3.0,17,0.00,,,0.00,Wunderground PWS Mod,2013-04-27 15:14:00,
2013-04-27 09:19:00,58.4,13.7,30.16,SSE,164,1.0,4.0,17,0.00,,,0.00,Wunderground PWS Mod,2013-04-27 15:19:00,
2013-04-27 09:24:00,59.6,10.3,30.16,NNE,12,2.0,6.0,14,0.00,,,0.00,Wunderground PWS Mod,2013-04-27 15:24:00,
2013-04-27 09:29:00,60.2,9.1,30.16,North,358,2.0,4.0,13,0.00,,,0.00,Wunderground PWS Mod,2013-04-27 15:29:00,
2013-04-27 09:34:00,60.2,7.3,30.15,NNW,340,4.0,6.0,12,0.00,,,0.00,Wunderground PWS Mod,2013-04-27 15:34:00,
2013-04-27 09:39:00,60.2,9.1,30.15,NNE,31,4.0,5.0,13,0.00,,,0.00,Wunderground PWS Mod,2013-04-27 15:39:00,
2013-04-27 09:44:00,60.7,9.5,30.15,NE,44,5.0,10.0,13,0.00,,,0.00,Wunderground PWS Mod,2013-04-27 15:44:00,
2013-04-27 09:49:00,60.9,7.9,30.14,NNE,23,3.0,6.0,12,0.00,,,0.00,Wunderground PWS Mod,2013-04-27 15:49:00,
2013-04-27 09:54:00,61.2,8.1,30.14,NNE,17,1.0,5.0,12,0.00,,,0.00,Wunderground PWS Mod,2013-04-27 15:54:00,
2013-04-27 09:59:00,61.6,8.4,30.14,NNE,26,3.0,5.0,12,0.00,,,0.00,Wunderground PWS Mod,2013-04-27 15:59:00,
2013-04-27 10:04:00,61.3,8.2,30.14,North,354,4.0,9.0,12,0.00,,,0.00,Wunderground PWS Mod,2013-04-27 16:04:00,
2013-04-27 10:09:00,60.4,7.5,30.14,NNW,346,2.0,13.0,12,0.00,,,0.00,Wunderground PWS Mod,2013-04-27 16:09:00,
2013-04-27 10:14:00,60.4,9.2,30.14,NNW,340,1.0,5.0,13,0.00,,,0.00,Wunderground PWS Mod,2013-04-27 16:14:00,
2013-04-27 10:19:00,61.5,10.1,30.13,NE,34,3.0,7.0,13,0.00,,,0.00,Wunderground PWS Mod,2013-04-27 16:19:00,
2013-04-27 10:24:00,62.0,10.5,30.13,NNW,333,3.0,16.0,13,0.00,,,0.00,Wunderground PWS Mod,2013-04-27 16:24:00,
2013-04-27 10:29:00,62.0,6.8,30.13,NW,315,5.0,15.0,11,0.00,,,0.00,Wunderground PWS Mod,2013-04-27 16:29:00,
2013-04-27 10:34:00,61.8,8.6,30.13,West,266,2.0,6.0,12,0.00,,,0.00,Wunderground PWS Mod,2013-04-27 16:34:00,
2013-04-27 10:39:00,61.8,8.6,30.13,WNW,282,2.0,7.0,12,0.00,,,0.00,Wunderground PWS Mod,2013-04-27 16:39:00,
2013-04-27 10:44:00,62.1,8.8,30.12,West,259,2.0,7.0,12,0.00,,,0.00,Wunderground PWS Mod,2013-04-27 16:44:00,
2013-04-27 10:50:00,62.4,9.0,30.12,North,349,5.0,5.0,12,0.00,,,0.00,Wunderground PWS Mod,2013-04-27 16:50:00,
2013-04-27 10:55:00,62.1,8.8,30.12,North,356,2.0,3.0,12,0.00,,,0.00,Wunderground PWS Mod,2013-04-27 16:55:00,
2013-04-27 11:00:00,62.3,7.0,30.13,NNE,27,2.0,4.0,11,0.00,,,0.00,Wunderground PWS Mod,2013-04-27 17:00:00,
2013-04-27 11:05:00,62.4,9.0,30.13,NNE,12,7.0,7.0,12,0.00,,,0.00,Wunderground PWS Mod,2013-04-27 17:05:00,
2013-04-27 11:10:00,62.4,9.0,30.13,NNE,22,5.0,9.0,12,0.00,,,0.00,Wunderground PWS Mod,2013-04-27 17:10:00,
2013-04-27 11:15:00,63.2,11.5,30.13,North,11,1.0,5.0,13,0.00,,,0.00,Wunderground PWS Mod,2013-04-27 17:15:00,
2013-04-27 11:20:00,63.7,8.1,30.13,ENE,63,2.0,4.0,11,0.00,,,0.00,Wunderground PWS Mod,2013-04-27 17:20:00,
2013-04-27 11:25:00,63.9,8.3,30.13,North,11,2.0,3.0,11,0.00,,,0.00,Wunderground PWS Mod,2013-04-27 17:25:00,
2013-04-27 11:30:00,63.5,9.9,30.12,NNE,23,4.0,4.0,12,0.00,,,0.00,Wunderground PWS Mod,2013-04-27 17:30:00,
2013-04-27 11:35:00,63.4,9.8,30.12,North,0,3.0,4.0,12,0.00,,,0.00,Wunderground PWS Mod,2013-04-27 17:35:00,
2013-04-27 11:40:00,63.4,9.8,30.12,NE,41,4.0,6.0,12,0.00,,,0.00,Wunderground PWS Mod,2013-04-27 17:40:00,
2013-04-27 11:45:00,62.7,7.3,30.13,North,0,3.0,5.0,11,0.00,,,0.00,Wunderground PWS Mod,2013-04-27 17:45:00,
2013-04-27 11:50:00,63.1,9.6,30.13,ENE,58,2.0,4.0,12,0.00,,,0.00,Wunderground PWS Mod,2013-04-27 17:50:00,
2013-04-27 11:55:00,63.2,7.7,30.13,NNE,13,1.0,4.0,11,0.00,,,0.00,Wunderground PWS Mod,2013-04-27 17:55:00,
2013-04-27 12:00:00,63.1,7.7,30.12,NNW,345,6.0,6.0,11,0.00,,,0.00,Wunderground PWS Mod,2013-04-27 18:00:00,
2013-04-27 12:05:00,63.1,7.7,30.12,NW,319,2.0,4.0,11,0.00,,,0.00,Wunderground PWS Mod,2013-04-27 18:05:00,
2013-04-27 12:10:00,63.1,5.6,30.12,WSW,253,2.0,4.0,10,0.00,,,0.00,Wunderground PWS Mod,2013-04-27 18:10:00,
2013-04-27 12:15:00,63.4,5.8,30.12,NNE,25,3.0,5.0,10,0.00,,,0.00,Wunderground PWS Mod,2013-04-27 18:15:00,
2013-04-27 12:20:00,63.7,6.0,30.12,NE,37,3.0,3.0,10,0.00,,,0.00,Wunderground PWS Mod,2013-04-27 18:20:00,
2013-04-27 12:25:00,64.2,10.5,30.12,NNE,18,3.0,4.0,12,0.00,,,0.00,Wunderground PWS Mod,2013-04-27 18:25:00,
2013-04-27 12:30:00,64.5,8.7,30.09,NNE,17,1.0,3.0,11,0.00,,,0.00,Wunderground PWS Mod,2013-04-27 18:30:00,
2013-04-27 12:35:00,65.3,4.9,30.09,NNE,21,2.0,3.0,9,0.00,,,0.00,Wunderground PWS Mod,2013-04-27 18:35:00,
2013-04-27 12:40:00,65.3,7.2,30.09,NNW,339,4.0,4.0,10,0.00,,,0.00,Wunderground PWS Mod,2013-04-27 18:40:00,
2013-04-27 12:45:00,65.5,5.1,30.09,NNW,338,3.0,4.0,9,0.00,,,0.00,Wunderground PWS Mod,2013-04-27 18:45:00,
2013-04-27 12:50:00,64.7,4.5,30.09,NNE,25,1.0,4.0,9,0.00,,,0.00,Wunderground PWS Mod,2013-04-27 18:50:00,
2013-04-27 12:55:00,64.8,4.5,30.09,North,0,3.0,5.0,9,0.00,,,0.00,Wunderground PWS Mod,2013-04-27 18:55:00,
2013-04-27 13:00:00,65.3,4.9,30.08,North,351,11.0,11.0,9,0.00,,,0.00,Wunderground PWS Mod,2013-04-27 19:00:00,
2013-04-27 13:05:00,64.8,2.0,30.08,NNE,31,4.0,5.0,8,0.00,,,0.00,Wunderground PWS Mod,2013-04-27 19:05:00,
2013-04-27 13:10:00,65.2,7.2,30.08,ENE,77,4.0,9.0,10,0.00,,,0.00,Wunderground PWS Mod,2013-04-27 19:10:00,
2013-04-27 13:15:00,64.8,2.0,30.09,NE,45,1.0,4.0,8,0.00,,,0.00,Wunderground PWS Mod,2013-04-27 19:15:00,
2013-04-27 13:20:00,65.3,7.2,30.09,North,0,3.0,6.0,10,0.00,,,0.00,Wunderground PWS Mod,2013-04-27 19:20:00,
2013-04-27 13:25:00,66.0,5.5,30.09,North,355,5.0,6.0,9,0.00,,,0.00,Wunderground PWS Mod,2013-04-27 19:25:00,
2013-04-27 13:30:00,65.8,5.3,30.07,NNW,345,2.0,3.0,9,0.00,,,0.00,Wunderground PWS Mod,2013-04-27 19:30:00,
2013-04-27 13:35:00,66.0,5.5,30.07,North,0,3.0,5.0,9,0.00,,,0.00,Wunderground PWS Mod,2013-04-27 19:35:00,
2013-04-27 13:40:00,66.1,5.5,30.07,NE,39,5.0,6.0,9,0.00,,,0.00,Wunderground PWS Mod,2013-04-27 19:40:00,
2013-04-27 13:45:00,65.8,5.3,30.06,NE,40,1.0,4.0,9,0.00,,,0.00,Wunderground PWS Mod,2013-04-27 19:45:00,
2013-04-27 13:50:00,65.8,7.6,30.06,NE,34,5.0,6.0,10,0.00,,,0.00,Wunderground PWS Mod,2013-04-27 19:50:00,
2013-04-27 13:55:00,65.3,4.9,30.06,NNW,347,1.0,3.0,9,0.00,,,0.00,Wunderground PWS Mod,2013-04-27 19:55:00,
2013-04-27 14:00:00,66.3,5.7,30.05,East,86,1.0,3.0,9,0.00,,,0.00,Wunderground PWS Mod,2013-04-27 20:00:00,
2013-04-27 14:05:00,66.8,6.1,30.05,NNW,339,4.0,4.0,9,0.00,,,0.00,Wunderground PWS Mod,2013-04-27 20:05:00,
2013-04-27 14:10:00,65.6,5.2,30.05,North,358,3.0,6.0,9,0.00,,,0.00,Wunderground PWS Mod,2013-04-27 20:10:00,
2013-04-27 14:15:00,65.6,7.5,30.07,NNE,26,2.0,5.0,10,0.00,,,0.00,Wunderground PWS Mod,2013-04-27 20:15:00,
2013-04-27 14:20:00,66.4,8.1,30.07,West,278,3.0,3.0,10,0.00,,,0.00,Wunderground PWS Mod,2013-04-27 20:20:00,
2013-04-27 14:25:00,66.9,8.5,30.07,North,1,3.0,7.0,10,0.00,,,0.00,Wunderground PWS Mod,2013-04-27 20:25:00,
2013-04-27 14:30:00,66.8,8.4,30.06,NNW,345,2.0,11.0,10,0.00,,,0.00,Wunderground PWS Mod,2013-04-27 20:30:00,
2013-04-27 14:35:00,66.4,8.1,30.06,NNE,29,5.0,6.0,10,0.00,,,0.00,Wunderground PWS Mod,2013-04-27 20:35:00,
2013-04-27 14:40:00,66.9,10.6,30.06,NW,324,7.0,7.0,11,0.00,,,0.00,Wunderground PWS Mod,2013-04-27 20:40:00,
2013-04-27 14:45:00,67.3,10.9,30.05,NNE,13,4.0,6.0,11,0.00,,,0.00,Wunderground PWS Mod,2013-04-27 20:45:00,
2013-04-27 14:50:00,67.1,10.8,30.05,East,86,3.0,7.0,11,0.00,,,0.00,Wunderground PWS Mod,2013-04-27 20:50:00,
2013-04-27 14:55:00,66.8,8.4,30.05,NE,54,5.0,5.0,10,0.00,,,0.00,Wunderground PWS Mod,2013-04-27 20:55:00,
2013-04-27 15:00:00,66.4,8.1,30.05,ENE,68,2.0,4.0,10,0.00,,,0.00,Wunderground PWS Mod,2013-04-27 21:00:00,
2013-04-27 15:05:00,67.3,8.8,30.05,North,10,4.0,9.0,10,0.00,,,0.00,Wunderground PWS Mod,2013-04-27 21:05:00,
2013-04-27 15:10:00,66.9,8.5,30.05,NNW,344,1.0,5.0,10,0.00,,,0.00,Wunderground PWS Mod,2013-04-27 21:10:00,
2013-04-27 15:15:00,67.1,6.3,30.02,North,353,7.0,7.0,9,0.00,,,0.00,Wunderground PWS Mod,2013-04-27 21:15:00,
2013-04-27 15:20:00,67.1,3.7,30.02,NNE,32,4.0,7.0,8,0.00,,,0.00,Wunderground PWS Mod,2013-04-27 21:20:00,
2013-04-27 15:25:00,67.1,6.3,30.02,NW,309,2.0,7.0,9,0.00,,,0.00,Wunderground PWS Mod,2013-04-27 21:25:00,
2013-04-27 15:30:00,67.6,9.0,30.02,North,5,1.0,3.0,10,0.00,,,0.00,Wunderground PWS Mod,2013-04-27 21:30:00,
2013-04-27 15:35:00,68.1,7.1,30.02,NNW,346,5.0,7.0,9,0.00,,,0.00,Wunderground PWS Mod,2013-04-27 21:35:00,
2013-04-27 15:40:00,68.4,9.6,30.02,NNW,341,4.0,6.0,10,0.00,,,0.00,Wunderground PWS Mod,2013-04-27 21:40:00,
2013-04-27 15:45:00,69.1,7.8,30.00,SW,226,3.0,4.0,9,0.00,,,0.00,Wunderground PWS Mod,2013-04-27 21:45:00,
2013-04-27 15:50:00,69.3,8.0,30.00,NNW,335,1.0,4.0,9,0.00,,,0.00,Wunderground PWS Mod,2013-04-27 21:50:00,
2013-04-27 15:55:00,69.1,7.8,30.00,WSW,245,3.0,4.0,9,0.00,,,0.00,Wunderground PWS Mod,2013-04-27 21:55:00,
2013-04-27 16:00:00,68.9,7.7,29.98,NNE,24,6.0,10.0,9,0.00,,,0.00,Wunderground PWS Mod,2013-04-27 22:00:00,
2013-04-27 16:05:00,67.3,8.8,29.98,NNE,32,3.0,4.0,10,0.00,,,0.00,Wunderground PWS Mod,2013-04-27 22:05:00,
2013-04-27 16:10:00,67.4,8.9,29.98,NNW,334,4.0,6.0,10,0.00,,,0.00,Wunderground PWS Mod,2013-04-27 22:10:00,
2013-04-27 16:15:00,68.1,7.1,30.03,North,358,9.0,13.0,9,0.00,,,0.00,Wunderground PWS Mod,2013-04-27 22:15:00,
2013-04-27 16:20:00,67.4,6.5,30.03,NNW,337,6.0,6.0,9,0.00,,,0.00,Wunderground PWS Mod,2013-04-27 22:20:00,
2013-04-27 16:25:00,67.9,6.9,30.03,WNW,295,3.0,10.0,9,0.00,,,0.00,Wunderground PWS Mod,2013-04-27 22:25:00,
2013-04-27 16:30:00,67.8,6.8,30.02,North,350,4.0,12.0,9,0.00,,,0.00,Wunderground PWS Mod,2013-04-27 22:30:00,
2013-04-27 16:35:00,67.9,6.9,30.02,NNW,342,2.0,5.0,9,0.00,,,0.00,Wunderground PWS Mod,2013-04-27 22:35:00,
2013-04-27 16:40:00,68.4,4.7,30.02,NW,319,1.0,4.0,8,0.00,,,0.00,Wunderground PWS Mod,2013-04-27 22:40:00,
2013-04-27 16:45:00,69.1,7.8,30.01,WSW,241,5.0,5.0,9,0.00,,,0.00,Wunderground PWS Mod,2013-04-27 22:45:00,
2013-04-27 16:50:00,69.1,5.2,30.01,SW,223,2.0,4.0,8,0.00,,,0.00,Wunderground PWS Mod,2013-04-27 22:50:00,
2013-04-27 16:55:00,69.1,5.2,30.01,North,0,10.0,11.0,8,0.00,,,0.00,Wunderground PWS Mod,2013-04-27 22:55:00,
2013-04-27 17:00:00,67.8,4.2,30.02,North,353,12.0,15.0,8,0.00,,,0.00,Wunderground PWS Mod,2013-04-27 23:00:00,
2013-04-27 17:05:00,66.4,3.2,30.02,NNW,339,4.0,9.0,8,0.00,,,0.00,Wunderground PWS Mod,2013-04-27 23:05:00,
2013-04-27 17:10:00,66.3,5.7,30.02,North,358,3.0,7.0,9,0.00,,,0.00,Wunderground PWS Mod,2013-04-27 23:10:00,
2013-04-27 17:15:00,66.6,5.9,30.03,North,357,9.0,10.0,9,0.00,,,0.00,Wunderground PWS Mod,2013-04-27 23:15:00,
2013-04-27 17:21:00,66.9,6.1,30.03,North,355,7.0,9.0,9,0.00,,,0.00,Wunderground PWS Mod,2013-04-27 23:21:00,
2013-04-27 17:26:00,66.8,6.1,30.03,South,173,2.0,6.0,9,0.00,,,0.00,Wunderground PWS Mod,2013-04-27 23:26:00,
2013-04-27 17:31:00,67.6,4.1,30.02,NNW,333,4.0,10.0,8,0.00,,,0.00,Wunderground PWS Mod,2013-04-27 23:31:00,
2013-04-27 17:36:00,67.1,6.3,30.02,NNW,343,6.0,10.0,9,0.00,,,0.00,Wunderground PWS Mod,2013-04-27 23:36:00,
2013-04-27 17:41:00,66.9,3.6,30.02,NNW,343,2.0,5.0,8,0.00,,,0.00,Wunderground PWS Mod,2013-04-27 23:41:00,
2013-04-27 17:46:00,67.1,6.3,30.03,NNW,330,3.0,5.0,9,0.00,,,0.00,Wunderground PWS Mod,2013-04-27 23:46:00,
2013-04-27 17:51:00,66.9,3.6,30.03,North,350,3.0,12.0,8,0.00,,,0.00,Wunderground PWS Mod,2013-04-27 23:51:00,
2013-04-27 17:56:00,66.8,3.5,30.03,NNW,348,3.0,5.0,8,0.00,,,0.00,Wunderground PWS Mod,2013-04-27 23:56:00,
2013-04-27 18:01:00,66.8,6.1,30.04,NW,325,3.0,4.0,9,0.00,,,0.00,Wunderground PWS Mod,2013-04-28 00:01:00,
2013-04-27 18:06:00,66.8,6.1,30.04,NNE,21,11.0,13.0,9,0.00,,,0.00,Wunderground PWS Mod,2013-04-28 00:06:00,
2013-04-27 18:11:00,66.1,5.5,30.04,NNW,345,2.0,4.0,9,0.00,,,0.00,Wunderground PWS Mod,2013-04-28 00:11:00,
2013-04-27 18:16:00,66.1,3.0,30.03,WSW,255,2.0,5.0,8,0.00,,,0.00,Wunderground PWS Mod,2013-04-28 00:16:00,
2013-04-27 18:21:00,65.8,5.3,30.03,NNW,345,4.0,5.0,9,0.00,,,0.00,Wunderground PWS Mod,2013-04-28 00:21:00,
2013-04-27 18:26:00,65.8,5.3,30.03,NNW,343,0.0,6.0,9,0.00,,,0.00,Wunderground PWS Mod,2013-04-28 00:26:00,
2013-04-27 18:31:00,66.0,5.5,30.03,North,350,2.0,5.0,9,0.00,,,0.00,Wunderground PWS Mod,2013-04-28 00:31:00,
2013-04-27 18:36:00,65.8,5.3,30.03,SW,227,5.0,5.0,9,0.00,,,0.00,Wunderground PWS Mod,2013-04-28 00:36:00,
2013-04-27 18:41:00,65.5,5.1,30.03,West,275,6.0,6.0,9,0.00,,,0.00,Wunderground PWS Mod,2013-04-28 00:41:00,
2013-04-27 18:46:00,65.3,4.9,30.04,NW,304,1.0,4.0,9,0.00,,,0.00,Wunderground PWS Mod,2013-04-28 00:46:00,
2013-04-27 18:51:00,65.0,4.7,30.04,West,270,4.0,4.0,9,0.00,,,0.00,Wunderground PWS Mod,2013-04-28 00:51:00,
2013-04-27 18:56:00,64.7,4.5,30.04,NNW,346,3.0,5.0,9,0.00,,,0.00,Wunderground PWS Mod,2013-04-28 00:56:00,
2013-04-27 19:01:00,64.5,4.3,30.04,NNW,331,1.0,6.0,9,0.00,,,0.00,Wunderground PWS Mod,2013-04-28 01:01:00,
2013-04-27 19:06:00,64.2,4.1,30.04,NNW,347,5.0,5.0,9,0.00,,,0.00,Wunderground PWS Mod,2013-04-28 01:06:00,
2013-04-27 19:11:00,64.0,3.9,30.04,North,351,4.0,5.0,9,0.00,,,0.00,Wunderground PWS Mod,2013-04-28 01:11:00,
2013-04-27 19:16:00,63.7,6.0,29.98,NW,315,1.0,3.0,10,0.00,,,0.00,Wunderground PWS Mod,2013-04-28 01:16:00,
2013-04-27 19:21:00,63.4,3.5,29.98,North,354,2.0,4.0,9,0.00,,,0.00,Wunderground PWS Mod,2013-04-28 01:21:00,
2013-04-27 19:26:00,63.1,5.6,29.98,NNW,342,5.0,5.0,10,0.00,,,0.00,Wunderground PWS Mod,2013-04-28 01:26:00,
2013-04-27 19:31:00,62.4,5.0,29.98,NNW,342,3.0,6.0,10,0.00,,,0.00,Wunderground PWS Mod,2013-04-28 01:31:00,
2013-04-27 19:36:00,62.0,6.8,29.98,NNW,340,3.0,4.0,11,0.00,,,0.00,Wunderground PWS Mod,2013-04-28 01:36:00,
2013-04-27 19:41:00,61.3,8.2,29.98,North,350,1.0,3.0,12,0.00,,,0.00,Wunderground PWS Mod,2013-04-28 01:41:00,
2013-04-27 19:46:00,60.5,7.5,29.99,North,349,1.0,2.0,12,0.00,,,0.00,Wunderground PWS Mod,2013-04-28 01:46:00,
2013-04-27 19:51:00,59.8,7.0,29.99,North,349,1.0,3.0,12,0.00,,,0.00,Wunderground PWS Mod,2013-04-28 01:51:00,
2013-04-27 19:56:00,59.2,6.5,29.99,North,349,2.0,2.0,12,0.00,,,0.00,Wunderground PWS Mod,2013-04-28 01:56:00,
2013-04-27 20:01:00,58.9,6.3,30.01,NNW,347,2.0,3.0,12,0.00,,,0.00,Wunderground PWS Mod,2013-04-28 02:01:00,
2013-04-27 20:06:00,58.3,5.8,30.01,NNW,347,2.0,2.0,12,0.00,,,0.00,Wunderground PWS Mod,2013-04-28 02:06:00,
2013-04-27 20:11:00,57.0,6.5,30.01,NNW,347,1.0,1.0,13,0.00,,,0.00,Wunderground PWS Mod,2013-04-28 02:11:00,
2013-04-27 20:16:00,55.6,7.1,29.98,NNW,347,1.0,2.0,14,0.00,,,0.00,Wunderground PWS Mod,2013-04-28 02:16:00,
2013-04-27 20:21:00,54.2,7.5,29.98,NNW,347,1.0,2.0,15,0.00,,,0.00,Wunderground PWS Mod,2013-04-28 02:21:00,
2013-04-27 20:26:00,53.2,6.7,29.98,NNW,347,2.0,2.0,15,0.00,,,0.00,Wunderground PWS Mod,2013-04-28 02:26:00,
2013-04-27 20:31:00,52.5,7.5,30.00,NNW,347,1.0,2.0,16,0.00,,,0.00,Wunderground PWS Mod,2013-04-28 02:31:00,
2013-04-27 20:36:00,52.0,7.1,30.00,NNW,347,2.0,2.0,16,0.00,,,0.00,Wunderground PWS Mod,2013-04-28 02:36:00,
2013-04-27 20:41:00,51.4,8.0,30.00,North,0,2.0,3.0,17,0.00,,,0.00,Wunderground PWS Mod,2013-04-28 02:41:00,
2013-04-27 20:46:00,50.7,7.4,30.02,North,0,1.0,2.0,17,0.00,,,0.00,Wunderground PWS Mod,2013-04-28 02:46:00,
2013-04-27 20:51:00,50.1,6.9,30.02,North,0,2.0,3.0,17,0.00,,,0.00,Wunderground PWS Mod,2013-04-28 02:51:00,
2013-04-27 20:56:00,49.8,6.7,30.02,North,1,2.0,3.0,17,0.00,,,0.00,Wunderground PWS Mod,2013-04-28 02:56:00,
2013-04-27 21:01:00,49.4,7.6,30.04,North,1,2.0,3.0,18,0.00,,,0.00,Wunderground PWS Mod,2013-04-28 03:01:00,
2013-04-27 21:06:00,48.8,8.3,30.04,North,4,2.0,3.0,19,0.00,,,0.00,Wunderground PWS Mod,2013-04-28 03:06:00,
2013-04-27 21:11:00,48.6,8.1,30.04,North,4,2.0,3.0,19,0.00,,,0.00,Wunderground PWS Mod,2013-04-28 03:11:00,
2013-04-27 21:16:00,48.6,8.1,29.99,North,4,3.0,3.0,19,0.00,,,0.00,Wunderground PWS Mod,2013-04-28 03:16:00,
2013-04-27 21:21:00,48.5,8.0,29.99,NNE,12,3.0,3.0,19,0.00,,,0.00,Wunderground PWS Mod,2013-04-28 03:21:00,
2013-04-27 21:26:00,48.3,7.9,29.99,NNE,14,2.0,3.0,19,0.00,,,0.00,Wunderground PWS Mod,2013-04-28 03:26:00,
2013-04-27 21:31:00,48.3,9.0,30.00,NNE,14,2.0,3.0,20,0.00,,,0.00,Wunderground PWS Mod,2013-04-28 03:31:00,
2013-04-27 21:36:00,48.0,7.6,30.00,NNE,14,2.0,3.0,19,0.00,,,0.00,Wunderground PWS Mod,2013-04-28 03:36:00,
2013-04-27 21:41:00,48.0,8.8,30.00,NNE,16,3.0,3.0,20,0.00,,,0.00,Wunderground PWS Mod,2013-04-28 03:41:00,
2013-04-27 21:46:00,48.0,7.6,30.00,NNE,22,2.0,3.0,19,0.00,,,0.00,Wunderground PWS Mod,2013-04-28 03:46:00,
2013-04-27 21:51:00,48.3,7.9,30.00,NNE,22,3.0,3.0,19,0.00,,,0.00,Wunderground PWS Mod,2013-04-28 03:51:00,
2013-04-27 21:56:00,48.8,7.1,30.00,NNE,22,3.0,3.0,18,0.00,,,0.00,Wunderground PWS Mod,2013-04-28 03:56:00,
2013-04-27 22:01:00,49.1,7.3,30.00,NNE,22,2.0,3.0,18,0.00,,,0.00,Wunderground PWS Mod,2013-04-28 04:01:00,
2013-04-27 22:06:00,49.4,7.6,30.00,NNE,22,2.0,3.0,18,0.00,,,0.00,Wunderground PWS Mod,2013-04-28 04:06:00,
2013-04-27 22:12:00,49.5,7.7,30.00,NNE,22,2.0,3.0,18,0.00,,,0.00,Wunderground PWS Mod,2013-04-28 04:12:00,
2013-04-27 22:17:00,48.9,7.2,30.01,NNE,23,2.0,3.0,18,0.00,,,0.00,Wunderground PWS Mod,2013-04-28 04:17:00,
2013-04-27 22:22:00,48.6,6.9,30.01,NNE,22,3.0,3.0,18,0.00,,,0.00,Wunderground PWS Mod,2013-04-28 04:22:00,
2013-04-27 22:27:00,48.6,6.9,30.01,NNE,23,2.0,3.0,18,0.00,,,0.00,Wunderground PWS Mod,2013-04-28 04:27:00,
2013-04-27 22:32:00,48.5,6.8,30.01,NNE,13,2.0,3.0,18,0.00,,,0.00,Wunderground PWS Mod,2013-04-28 04:32:00,
2013-04-27 22:37:00,48.6,6.9,30.01,NNE,17,3.0,4.0,18,0.00,,,0.00,Wunderground PWS Mod,2013-04-28 04:37:00,
2013-04-27 22:42:00,48.6,6.9,30.01,NNE,17,3.0,4.0,18,0.00,,,0.00,Wunderground PWS Mod,2013-04-28 04:42:00,
2013-04-27 22:47:00,48.5,6.8,30.01,NNE,17,2.0,3.0,18,0.00,,,0.00,Wunderground PWS Mod,2013-04-28 04:47:00,
2013-04-27 22:52:00,48.6,5.7,30.01,NNE,19,3.0,4.0,17,0.00,,,0.00,Wunderground PWS Mod,2013-04-28 04:52:00,
2013-04-27 22:57:00,48.9,5.9,30.01,NNE,19,2.0,4.0,17,0.00,,,0.00,Wunderground PWS Mod,2013-04-28 04:57:00,
2013-04-27 23:02:00,48.6,5.7,30.01,NNE,19,2.0,3.0,17,0.00,,,0.00,Wunderground PWS Mod,2013-04-28 05:02:00,
2013-04-27 23:07:00,48.2,5.3,30.01,NNE,19,3.0,3.0,17,0.00,,,0.00,Wunderground PWS Mod,2013-04-28 05:07:00,
2013-04-27 23:12:00,48.0,5.2,30.01,NNE,19,3.0,3.0,17,0.00,,,0.00,Wunderground PWS Mod,2013-04-28 05:12:00,
2013-04-27 23:17:00,48.3,5.4,30.01,NNE,19,3.0,3.0,17,0.00,,,0.00,Wunderground PWS Mod,2013-04-28 05:17:00,
2013-04-27 23:22:00,47.9,5.1,30.01,NNE,19,2.0,3.0,17,0.00,,,0.00,Wunderground PWS Mod,2013-04-28 05:22:00,
2013-04-27 23:27:00,47.7,4.9,30.01,NNE,20,2.0,3.0,17,0.00,,,0.00,Wunderground PWS Mod,2013-04-28 05:27:00,
2013-04-27 23:32:00,47.6,4.9,30.01,NE,34,3.0,3.0,17,0.00,,,0.00,Wunderground PWS Mod,2013-04-28 05:32:00,
2013-04-27 23:37:00,47.0,5.6,30.01,NE,34,1.0,3.0,18,0.00,,,0.00,Wunderground PWS Mod,2013-04-28 05:37:00,
2013-04-27 23:42:00,46.1,4.9,30.01,NE,34,2.0,3.0,18,0.00,,,0.00,Wunderground PWS Mod,2013-04-28 05:42:00,
2013-04-27 23:47:00,45.5,5.6,30.02,NE,34,1.0,2.0,19,0.00,,,0.00,Wunderground PWS Mod,2013-04-28 05:47:00,
2013-04-27 23:52:00,44.9,6.2,30.02,NE,37,3.0,3.0,20,0.00,,,0.00,Wunderground PWS Mod,2013-04-28 05:52:00,
2013-04-27 23:57:00,44.2,5.6,30.02,NE,37,2.0,4.0,20,0.00,,,0.00,Wunderground PWS Mod,2013-04-28 05:57:00,